www.pogodaiklimat.ru

Погода и климат >> Архив погоды >> Пакистан >> Bahawalpur


ПОГОДА в Bahawalpur

  • Прогноз погоды в Bahawalpur
  • Монитор погоды в Bahawalpur
  • Климат города

АРХИВ ПОГОДЫ в Bahawalpur

Время (UTC), дата Ветер
(напр.,м/с)
 
Видим.   Явления Облачность Т
(С)
Тd
(С)
f
(%)
Тe
(С)
Тes
(С)
Комфортность P
(гПа)
Po
(гПа)
Тmin
(С)
Tmax
(С)
R
(мм)
R24
(мм)
S
(см)
03 11.10 СВ 1 2000 м дым ясно +21.5 +14.6 65 +25 +27 комфорт 1009.6 997.1 +15.7
06 11.10 СВ 1 2000 м мгла ясно +28.5 +16.6 49 +32 +47 душно 1010.9 1000.0
09 11.10 СВ 1 4000 м мгла ясно +32.5 +15.9 37 +35 +47 душно 1008.3 1000.0
12 11.10 СВ 1 4000 м мгла ясно +31.0 +14.8 37 +33 +34 душно 1007.7 995.6 +33.1
15 11.10 штиль 0 2000 м дым ясно +26.0 +17.3 59 +30 +30 душно 1009.2 1000.0
18 11.10 штиль 0 2000 м дым ясно +23.0 +18.3 75 +29 +29 очень
душно
1010.6 1000.0
21 11.10 штиль 0 2000 м дымка ясно +20.0 +16.7 81 +22 +22 комфорт 1010.2 999.1
00 12.10 штиль 0 2000 м дымка ясно +19.0 +15.6 81 +20 +20 1011.5 998.9
03 12.10 В 1 2000 м дымка ясно +20.5 +17.3 82 +25 +27 комфорт 1013.2 1000.7 +17.9
06 12.10 В 1 2000 м дым ясно +29.0 +18.2 52 +34 +48 очень
душно
1013.2 1000.0
09 12.10 СВ 3 4000 м мгла ясно +32.0 +15.2 36 +34 +43 душно 1011.1 998.5
12 12.10 В 1 4000 м мгла ясно +31.0 +14.8 37 +33 +34 душно 1010.1 998.0 +32.9
15 12.10 штиль 0 2000 м дым ясно +26.0 +17.3 59 +30 +30 душно 1011.0 1000.0
18 12.10 штиль 0 2000 м дым ясно +24.0 +16.8 64 +28 +28 душно 1011.6 1000.0
21 12.10 штиль 0 2000 м дым ясно +21.5 +15.7 70 +25 +25 комфорт 1011.0 999.4
00 13.10 штиль 0 2000 м дымка ясно +19.5 +16.2 81 +21 +21 комфорт 1012.0 999.4
03 13.10 ЮВ 2 2000 м дым ясно +22.0 +17.2 74 +26 +28 душно 1013.6 1001.2 +18.9
06 13.10 ЮВ 3 2000 м мгла ясно +29.5 +16.9 47 +33 +43 душно 1014.2 1001.2
09 13.10 ЮВ 1 4000 м мгла ясно +33.5 +15.2 33 +35 +48 душно 1011.7 1000.0
12 13.10 СВ 1 4000 м мгла ясно +31.5 +17.5 43 +35 +36 очень
душно
1010.2 998.2 +34.7
15 13.10 штиль 0 2000 м дым ясно +26.5 +17.9 59 +31 +31 душно 1010.9 1000.0
18 13.10 штиль 0 2000 м дым ясно +24.0 +17.6 67 +28 +28 душно 1011.5 1000.0
21 13.10 штиль 0 2000 м дым ясно +22.0 +16.3 70 +26 +26 душно 1011.0 1000.0
00 14.10 штиль 0 2000 м дым ясно +20.0 +15.8 77 +22 +22 комфорт 1010.5 997.9
03 14.10 ЮВ 1 2000 м дым ясно +21.0 +16.0 73 +26 +28 душно 1011.7 999.2 +19.5
06 14.10 ЮВ 1 2000 м мгла ясно +29.5 +15.9 44 +33 +47 душно 1012.1 1000.0
09 14.10 штиль 0 4000 м мгла ясно +34.0 +13.7 29 +35 +49 очень
жарко
1009.2 1000.0
12 14.10 ЮЗ 2 4000 м мгла ясно +33.5 +11.7 27 +34 +34 очень
жарко
1008.0 996.0 +35.1
15 14.10 штиль 0 2000 м дым ясно +25.5 +16.7 58 +29 +29 душно 1008.8 1000.0
18 14.10 штиль 0 2000 м дым ясно +23.5 +16.2 64 +27 +27 душно 1009.8 1000.0
21 14.10 штиль 0 2000 м дым ясно +22.0 +15.4 66 +26 +26 душно 1009.3 998.3
00 15.10 штиль 0 2000 м дым ясно +20.0 +14.9 72 +22 +22 комфорт 1009.7 997.1
03 15.10 В 1 2000 м дым ясно +20.5 +15.5 73 +25 +27 комфорт 1011.1 998.6 +18.3
06 15.10 СВ 1 4000 м мгла ясно +28.5 +14.6 43 +31 +45 душно 1011.9 1000.0
09 15.10 ЮЗ 2 4000 м мгла ясно +33.0 +14.4 33 +35 +46 душно 1009.4 1000.0
12 15.10 штиль 0 4000 м мгла 3/0
[Ci fib]
+33.5 +17.2 38 +37 +38 очень
душно
1008.1 996.0 +34.5
15 15.10 штиль 0 2000 м дым 1/0
[Ac trans]
+26.5 +16.0 52 +30 +30 душно 1009.1 1000.0
18 15.10 штиль 0 2000 м дым ясно +23.5 +15.2 60 +26 +26 жарко 1009.6 1000.0
21 15.10 штиль 0 2000 м дым ясно +21.5 +15.7 70 +25 +25 комфорт 1009.2 1000.0
00 16.10 штиль 0 2000 м дым ясно +19.5 +15.3 77 +21 +21 комфорт 1009.1 996.3
03 16.10 штиль 0 1000 м дым 3/0
[Ac trans]
+20.5 +16.4 77 +23 +25 комфорт 1010.0 997.3 +18.9
06 16.10 З 1 2000 м мгла 6/0
[Ac trans Ci fib]
+29.0 +15.3 43 +32 +42 душно 1010.7 1000.0
09 16.10 СЗ 1 4000 м мгла 4/0
[Ac trans Ci fib]
+32.0 +14.1 34 +34 +43 душно 1008.6 1000.0
12 16.10 штиль 0 4000 м мгла 3/0
[Ci fib]
+33.5 +14.1 31 +35 +35 душно 1007.7 995.3 +34.3
15 16.10 штиль 0 2000 м дым ясно +26.0 +15.4 52 +29 +29 душно 1008.3 1000.0
18 16.10 штиль 0 2000 м дым ясно +22.5 +14.0 59 +26 +26 жарко 1009.4 1000.0
21 16.10 штиль 0 2000 м дым ясно +21.0 +15.1 69 +24 +24 комфорт 1008.9 1000.0
00 17.10 штиль 0 2000 м дым ясно +19.0 +14.7 76 +20 +20 1009.0 996.2
03 17.10 штиль 0 1000 м дым ясно +19.0 +14.7 76 +20 +23 1010.5 997.7 +17.9
06 17.10 штиль 0 1000 м дым ясно +19.0 +14.7 76 +20 +35 опасность
простуды
1010.5 997.7 +17.9
09 17.10 СВ 2 4000 м мгла ясно +31.5 +14.5 36 +33 +43 жарко 1008.7 995.5
12 17.10 СВ 1 2000 м мгла ясно +31.0 +13.8 35 +32 +33 жарко 1007.2 995.0 +33.1
15 17.10 штиль 0 2000 м дым ясно +26.0 +16.4 55 +29 +29 душно 1008.4 1000.0
18 17.10 штиль 0 2000 м дым ясно +23.0 +15.6 63 +27 +27 душно 1009.0 1000.0
21 17.10 штиль 0 2000 м дым ясно +21.0 +15.1 69 +24 +24 комфорт 1008.5 1000.0

 

Местоположение метеостанции Bahawalpur (Пакистан): широта 29.40 долгота 71.78 высота над уровнем моря 113 м.

В архиве по умолчанию представлена погода в Bahawalpur за последнюю неделю. Архивные данные за месяц целиком и за предыдущие месяцы, начиная с января 2011 года, Вы можете получить, выбрав интересующий диапазон дат из раскрывающегося списка и нажав кнопку "Ввод!".


*Определитесь, кто Вы:
робот инопланетянин человек

Внимание! Время в таблицах - всемирное. Для получения местного времени необходимо прибавить поправку, которая в Bahawalpur равна 5 ч.

Смотрите также архив погоды в соседних городах и на ближайших метеорологических станциях:

Погода в Multan (Пакистан) (95 км)
Погода в Khanpur (Пакистан) (136 км)
Погода в Bahawalnagar (Пакистан) (155 км)
Погода в Raifiqui Airbase (Пакистан) (159 км)
Погода в Barkhan (Пакистан) (206 км)
Погода в Sri Ganganagar (Rajasthan, Индия) (212 км)
Погода в Bikaner (Rajasthan, Индия) (215 км)
Погода в Faisal Abad (Пакистан) (259 км)
Погода в Dera Ismail Khan (Пакистан) (281 км)
Погода в Jaisalmer (Rajasthan, Индия) (291 км)

Пояснения к столбцам:

Ветер - указаны скорость ветра в м/с - средняя за 10 мин, порывы в срок и между сроками (в фигурных скобках) и направление, откуда дует ветер: С - северный, СВ - северо-восточный, В - восточный, ЮВ - юго-восточный, Ю - южный, ЮЗ - юго-западный, З - западный, СЗ - северо-западный.
Видимость - горизонтальная дальность видимости в метрах или километрах. При видимости от 1 до 10 км при отсутствии осадков обычно наблюдается дымка, при ухудшении видимости до 1 км и менее - туман. В сухую погоду видимость может ухудшаться дымом, пылью или мглою.
Явления - указаны атмосферные явления, наблюдавшиеся в срок или в последний час перед сроком; фигурными скобками обозначены явления, наблюдавшиеся между сроками (за 1-3 часа до срока); квадратными скобками обозначены град или гололедные отложения с указанием их диаметра в мм.
Облачность - указаны через наклонную черту общая и нижняя облачность в баллах и высота нижней границы облаков в метрах; квадратными скобками обозначены формы облаков: Ci - перистые, Cs - перисто-слоистые, Cc - перисто-кучевые, Ac - высококучевые, As - высокослоистые, Sc - слоисто-кучевые, Ns - слоисто-дождевые, Cu - кучевые, Cb - кучево-дождевые. Подробнее классификацию облаков см. в Атласе облаков (PDF).
T - Температура воздуха - температура, измеренная на высоте 2 м над землей.
Td - Температура точки росы - температура, при понижении до которой содержащийся в воздухе водяной пар достигнет насыщения.
f - Относительная влажность воздуха - влажноcть воздуха, измеренная на высоте 2 м над землей.
Te - Эффективная температура - температура, которую ощущает одетый по сезону человек в тени. Характеристика душности погоды. При расчете учитывается влияние влажности воздуха и скорости ветра на теплоощущения человека.
Tes - Эффективная температура на солнце - температура, которую ощущает человек, с поправкой на солнечный нагрев. Характеристика знойности погоды. Зависит от высоты солнца над горизонтом, облачности и скорости ветра. Ночью, в пасмурную погоду, а также при ветре 12 м/с и более поправка равна нулю.
P - Атмосферное давление - приведенное к уровню моря атмосферное давление.
Po - Атмосферное давление - измеренное на уровне метеостанции атмосферное давление.
Tmin - Минимальная температура - минимум температуры воздуха на высоте 2 м над землей.
Tmax - Максимальная температура - максимум температуры воздуха на высоте 2 м над землей.
R - Количество осадков - Количество выпавших осадков за период времени, мм. При наведении курсора мыши на число - период времени, за который выпало указанное количество осадков.
R24 - Количество осадков - Количество выпавших осадков за 24 часа, мм.
S - Снежный покров - Высота снежного покрова, см. При наведении курсора мыши на число - состояние снежного покрова и степень покрытия местности в баллах.